Location: Unspecified
(51.0950°N, 12.9690°E)
Time: 06:49:54
(UTC+00:00)

NANOSAT C BR1 - Pass Details

Date: 26 April 2024
Orbit: 556 x 561 km, 98.1° (Epoch: 19 May)

Event Time Altitude Azimuth Distance (km) Brightness Sun altitude
Rises 02:10:20 0° 25° (NNE) 2,774 ? -13.9°
Reaches altitude 10° 02:12:53 10° 41° (NE) 1,873 ? -13.6°
Maximum altitude 02:16:04 22° 93° (E) 1,266 ? -13.2°
Drops below altitude 10° 02:19:14 10° 145° (SE) 1,862 ? -12.8°
Sets 02:21:45 0° 161° (SSE) 2,754 ? -12.5°
